Last 30 Days

OV-Siberia 8700'

Daily Data | America/Los_Angeles
as of 9/5/26 3:48 PM PDT
Date Daily Max Temp (°F) Time of Max Temp Daily Min Temp (°F) Time of Min Temp Wind Spd (mph) Daily Max Wind (mph) Time of Max Wind Max Wind Dir (°) Wet Bulb (°F) WetB Hrs <28F (hrs)
9/4/26 40.6 1542 36.2 2207 0.3 2.4 0807 SSE | 155 38.2 0.0
9/3/26 40.7 1223 35.6 0428 0.2 2.8 1725 WSW | 255 36.0 0.0
9/2/26 44.2 1629 32.5 0519 0.2 1.5 2156 S | 169 35.1 0.0
9/1/26 50.9 1251 33.2 2326 0.2 1.4 0431 S | 177 37.2 0.0
8/31/26 60.4 1327 44.7 2358 0.2 1.4 1402 S | 179 42.4 0.0
8/30/26 62.8 1519 45.7 0327 0.2 1.4 1023 S | 180 41.5 0.0
8/29/26 57.6 1623 44.6 0631 0.2 1.6 0908 SSE | 161 44.0 0.0
8/28/26 52.7 0135 44.7 1040 0.2 2.6 1010 S | 187 45.7 0.0
8/27/26 65.1 1250 51.7 2355 0.2 1.4 1205 S | 179 44.4 0.0
8/26/26 67.1 1548 54.5 0320 0.2 1.5 0817 S | 179 48.5 0.0
8/25/26 66.3 1528 52.8 0454 0.2 1.4 1620 S | 180 47.2 0.0
8/24/26 67.1 1412 53.7 2246 0.2 1.4 0018 S | 178 48.0 0.0
8/23/26 67.7 1501 53.2 0327 0.1 1.5 0655 S | 179 47.7 0.0
8/22/26 65.6 1436 53.6 2345 0.1 1.4 1112 S | 179 46.7 0.0
8/21/26 68.3 1408 55.5 2316 0.2 1.4 1541 S | 179 47.4 0.0
8/20/26 70.1 1439 56.2 0539 0.2 1.4 0958 S | 179 46.1 0.0
8/19/26 71.3 1502 58.0 2051 0.2 1.5 1114 S | 178 48.1 0.0
8/18/26 69.4 1708 53.7 0101 0.2 1.4 1306 S | 179 46.7 0.0
8/17/26 64.7 1335 51.8 0552 0.2 1.5 1426 S | 180 46.2 0.0
8/16/26 65.4 1510 50.0 0122 0.2 1.4 0909 S | 179 44.1 0.0
8/15/26 61.4 1638 47.6 0832 0.2 1.4 1844 S | 178 45.3 0.0
8/14/26 59.0 1647 45.2 0334 0.2 1.4 0728 S | 177 45.5 0.0
8/13/26 57.5 1303 48.2 2354 0.2 1.4 1139 S | 178 47.8 0.0
8/12/26 64.1 1527 53.6 2356 0.2 1.5 1505 S | 179 46.9 0.0
8/11/26 71.2 1530 57.4 2156 0.2 1.5 1319 S | 178 45.9 0.0
8/10/26 72.9 1422 60.4 2105 0.2 1.4 1711 S | 176 48.2 0.0
8/9/26 76.6 1547 63.2 2347 0.2 1.4 0538 S | 175 49.2 0.0
8/8/26 78.9 1438 65.8 0802 0.2 1.4 0655 S | 176 52.0 0.0
8/7/26 80.3 1515 63.7 0125 0.2 1.4 0338 S | 177 50.9 0.0
8/6/26 75.3 1507 60.4 0354 0.2 1.4 1249 S | 178 48.6 0.0
Max 80.3 - 65.8 - 0.3 2.8 - - 52.0 0.0
Avg - - - - 0.2 - - - 45.4 -
Min 40.6 - 32.5 - 0.1 1.4 - - 35.1 0.0